GFSNIL_sfc_dewp_000.txt.gz
Dewpoint
61 60 60 61 62 57 59 62 62 61 61 61 61 63 64 63 61 63 62 61 62 61
61 62 64 64 60 58 61 61 61 61 61 61 63 62 63 63 63 61 61 62 62 61
62 63 63 62 60 62 60 61 61 61 61 62 62 62 62 61 61 61 61 62 62 61
64 63 62 62 61 61 61 62 63 63 63 62 61 62 62 62 62 61 61 61 61 61
65 64 62 62 61 62 62 61 61 61 61 61 62 63 62 62 61 61 60 61 60 60
61 61 62 62 61 61 61 60 60 59 58 60 61 61 61 62 62 61 61 61 60 59
58 59 61 62 61 61 61 60 60 59 60 61 60 60 61 62 62 61 61 60 60 60
60 60 60 61 61 61 61 61 60 61 61 61 61 61 62 62 61 60 59 60 60 60
62 62 61 62 62 62 62 60 61 61 61 59 60 60 61 58 57 57 57 57 58 58
64 63 62 62 62 62 61 60 61 61 59 59 60 59 58 61 57 55 55 56 57 58
63 63 62 62 61 61 62 62 61 59 61 60 59 59 58 60 55 55 56 57 57 56
63 62 61 61 62 62 62 61 61 62 61 60 60 58 57 57 56 56 55 54 56 57
62 61 61 62 63 62 63 62 64 62 62 59 60 57 55 56 56 53 52 55 55 56
62 61 61 62 64 64 62 60 60 60 60 59 58 57 54 54 53 54 54 53 51 53

GFSNIL_sfc_dewp_003.txt.gz
Dewpoint
60 60 61 61 61 59 60 61 61 60 60 58 59 62 62 63 61 61 62 61 60 60
60 60 59 61 61 56 58 60 60 59 59 59 61 62 61 61 62 62 62 61 61 61
61 61 62 62 59 58 59 60 59 59 59 59 61 61 60 60 61 61 61 61 61 61
61 63 62 61 59 59 59 59 59 60 60 61 60 60 61 61 61 61 60 61 61 61
63 62 62 61 60 60 59 59 61 61 61 60 60 60 61 61 61 61 60 60 60 60
64 64 62 62 61 60 60 60 59 58 57 56 56 59 59 60 60 60 61 61 59 59
64 64 63 62 61 60 60 58 58 57 56 56 58 59 59 59 60 60 61 60 59 59
65 63 62 62 61 60 60 59 58 58 57 58 59 59 59 60 61 61 59 59 59 59
64 62 60 61 61 60 59 59 59 58 58 58 59 59 60 61 58 57 57 55 55 56
65 62 60 59 60 60 59 59 59 58 58 58 57 58 58 61 56 54 54 53 54 56
64 63 61 60 60 59 60 59 59 59 59 58 58 57 57 60 58 56 54 55 56 54
65 62 62 61 60 59 61 60 61 60 60 60 59 57 57 57 57 55 54 53 53 54
64 62 62 61 61 60 62 61 61 61 59 60 60 57 55 55 56 53 52 53 53 53
62 62 63 62 62 62 63 61 62 62 61 61 59 58 54 53 54 53 53 52 50 51

GFSNIL_sfc_dewp_006.txt.gz
Dewpoint
68 64 64 64 63 62 62 63 64 63 64 61 62 64 65 64 64 64 65 64 63 64
66 63 63 63 62 62 62 62 63 62 62 61 62 65 64 64 64 64 64 64 64 63
64 62 62 62 62 61 61 62 62 62 62 62 62 64 64 63 63 64 63 63 63 64
61 61 61 62 62 61 60 61 62 62 62 62 62 63 63 63 63 63 64 64 63 63
60 62 61 62 62 62 61 61 62 62 62 63 63 63 62 62 63 63 63 63 63 63
62 63 63 63 63 62 61 61 61 62 62 62 62 61 61 62 63 63 63 63 63 62
62 63 64 63 62 62 62 61 61 62 61 61 60 60 61 62 62 62 62 63 63 62
64 63 64 64 64 63 62 61 61 61 61 61 60 58 62 62 62 62 62 63 62 61
65 65 64 64 64 63 62 61 61 60 61 60 59 59 60 62 62 62 62 61 60 59
66 64 64 64 65 63 61 61 61 61 61 61 62 58 58 61 63 60 59 59 59 58
65 64 64 63 62 63 62 61 61 61 62 61 61 57 57 60 62 61 60 59 58 58
66 65 65 64 63 62 62 62 63 63 62 61 62 58 57 59 61 61 60 58 56 56
66 65 63 64 64 63 63 63 64 63 62 60 62 57 57 58 61 59 56 56 57 55
67 66 65 63 63 62 63 63 63 61 59 62 62 62 57 54 59 56 56 55 54 55

GFSNIL_sfc_dewp_009.txt.gz
Dewpoint
75 73 72 71 68 68 68 67 67 68 68 69 67 66 68 66 65 67 65 67 67 62
75 74 72 71 70 68 69 65 67 67 68 67 65 66 68 63 66 67 67 66 67 65
73 74 73 71 69 68 68 67 67 67 66 65 65 65 67 65 65 66 64 64 66 66
72 72 72 70 68 67 68 67 67 67 65 65 64 65 66 66 65 65 65 66 66 66
72 71 69 69 66 68 65 66 66 66 66 65 64 65 66 65 62 64 64 64 65 65
70 69 70 66 65 66 66 66 64 65 65 65 64 66 66 65 64 64 64 64 64 64
69 70 67 66 66 66 65 66 66 65 65 65 65 65 64 62 64 64 63 64 64 64
70 69 69 68 66 64 65 65 65 65 65 65 63 59 63 63 63 64 64 64 65 65
71 69 69 68 66 65 64 64 65 63 64 65 60 59 60 62 63 64 64 64 64 64
70 69 68 68 67 66 65 64 64 63 63 65 65 59 59 61 62 63 63 64 64 61
70 69 68 68 68 67 65 67 64 64 65 66 64 59 57 60 63 64 64 64 63 63
70 69 68 68 67 68 67 66 66 65 65 65 65 58 57 61 63 63 64 64 63 61
70 69 68 68 66 67 66 65 65 65 66 63 66 57 56 60 63 61 61 62 61 56
70 70 69 67 68 67 66 64 64 66 66 65 64 64 55 55 64 61 59 58 57 57

GFSNIL_sfc_dewp_012.txt.gz
Dewpoint
76 72 71 72 65 64 61 62 67 70 67 67 68 68 66 63 63 65 64 65 65 58
76 75 72 73 72 67 68 62 67 68 67 66 68 66 67 62 65 65 65 64 65 62
74 75 74 74 73 71 68 68 67 67 65 66 66 65 67 63 65 65 60 58 62 64
72 73 74 74 74 73 71 69 68 68 65 66 65 65 66 65 63 63 64 63 64 65
73 73 73 75 74 74 72 69 69 68 67 65 64 65 65 64 60 61 61 62 64 63
72 72 73 74 73 71 70 69 68 68 68 66 65 64 65 65 64 62 62 62 63 63
72 72 72 74 73 69 68 67 66 67 67 66 66 65 64 64 64 62 61 63 63 63
73 73 72 73 72 69 68 68 67 66 67 66 66 63 66 65 62 62 62 63 63 63
74 74 73 74 71 70 67 68 66 65 64 64 64 61 60 63 61 62 63 63 63 63
74 74 74 73 71 70 68 68 65 64 64 64 64 60 59 61 60 61 63 64 66 65
73 73 73 72 71 70 68 67 67 65 65 65 64 60 59 61 63 63 64 65 65 66
72 72 72 71 69 69 68 67 65 64 65 65 65 58 57 60 62 62 65 67 66 65
73 72 71 71 70 69 66 65 64 64 65 64 66 58 56 58 61 65 64 64 66 60
73 72 71 72 70 68 66 65 66 66 67 66 66 66 56 55 63 63 63 60 65 62

GFSNIL_sfc_dewp_015.txt.gz
Dewpoint
78 71 70 72 67 63 62 64 74 71 69 67 68 68 69 64 63 67 63 64 65 60
78 77 71 74 75 67 70 63 67 70 69 67 67 68 69 63 66 66 66 65 65 62
77 78 77 77 76 73 71 71 71 69 68 67 67 67 68 66 66 66 63 60 64 65
74 75 77 76 76 76 73 73 71 71 68 67 67 66 67 67 65 65 66 65 63 64
75 75 74 76 76 77 75 73 72 71 70 68 68 68 67 65 63 63 62 62 65 63
74 75 74 76 76 76 76 74 70 70 69 69 67 66 67 67 67 66 65 64 66 64
73 74 74 76 76 76 76 74 70 71 70 69 67 66 65 66 66 67 65 66 65 65
74 75 75 75 76 76 76 73 71 71 70 69 66 64 64 66 66 67 66 65 65 65
75 75 75 76 77 77 76 74 72 70 69 67 64 61 63 66 66 66 66 66 66 67
76 76 77 77 77 76 75 73 71 70 68 67 65 61 61 63 63 65 65 65 67 65
76 77 77 77 76 75 73 71 70 70 68 65 65 61 61 62 64 64 64 66 67 69
76 76 76 76 75 73 71 70 68 67 67 67 68 60 58 61 63 63 64 65 67 68
75 76 75 74 74 73 72 69 67 66 65 63 67 58 57 60 64 66 66 67 69 62
74 75 75 75 73 72 71 69 68 66 66 67 66 65 55 55 64 60 62 60 64 67

GFSNIL_sfc_dewp_021.txt.gz
Dewpoint
74 70 71 72 70 67 67 68 70 71 68 67 66 69 68 66 66 65 64 63 63 62
73 74 74 71 72 68 66 69 69 71 68 67 67 66 68 66 64 66 64 62 63 61
74 73 74 72 71 70 67 70 69 71 69 68 67 67 68 65 66 65 65 64 64 62
75 74 73 73 72 70 70 70 70 70 69 67 67 68 67 65 64 66 63 65 64 64
74 74 73 72 73 72 69 70 70 70 69 67 65 67 67 64 64 64 65 64 63 62
73 74 74 72 73 74 71 71 70 70 69 67 66 66 67 65 64 64 65 65 64 63
73 73 74 74 72 73 74 71 70 69 68 67 66 67 66 65 65 65 65 64 65 63
73 73 74 73 74 73 73 72 70 69 68 68 66 67 65 65 65 65 65 65 65 64
71 72 72 73 73 74 72 74 71 69 70 69 67 64 64 65 64 65 65 65 65 64
70 71 72 72 73 74 74 74 73 71 69 69 68 63 63 65 65 65 65 65 66 65
70 70 72 72 73 72 74 73 74 72 70 69 69 62 62 64 64 65 65 66 66 63
69 70 71 72 72 73 72 74 74 73 70 70 67 60 60 62 63 64 64 64 64 60
68 69 71 72 72 72 73 74 73 70 70 67 67 59 58 59 62 61 62 63 64 60
70 71 72 72 73 74 73 71 70 69 68 67 66 62 57 56 62 61 60 61 64 63

GFSNIL_sfc_dewp_024.txt.gz
Dewpoint
70 70 70 70 70 71 69 68 71 70 68 66 66 66 66 64 64 63 62 63 62 60
72 70 69 70 70 70 69 67 70 70 67 66 65 67 67 64 64 65 63 62 61 62
70 72 71 72 71 68 67 68 69 69 67 66 64 66 67 65 64 64 64 63 62 61
71 70 72 73 71 70 67 67 68 69 68 66 65 65 66 65 65 63 63 64 63 63
72 72 71 71 72 71 68 68 68 69 68 67 66 65 66 65 64 65 64 63 64 62
73 73 71 70 71 71 70 69 69 68 69 67 66 66 66 65 64 63 64 64 63 62
72 73 73 71 71 71 71 69 69 69 69 68 66 65 67 66 64 64 64 64 64 63
71 72 73 73 72 71 73 70 70 69 69 68 67 65 65 66 65 64 64 64 64 64
72 72 72 73 73 72 72 73 70 69 69 68 67 64 64 65 65 64 64 63 63 64
72 73 73 73 73 73 72 72 71 69 69 68 67 62 63 65 65 65 65 65 64 64
72 72 72 73 73 73 74 72 73 71 69 69 68 62 61 64 66 66 66 65 65 64
71 71 72 72 72 72 73 73 73 73 70 69 69 61 60 64 66 66 65 66 66 66
71 71 71 71 71 72 72 73 73 73 71 68 70 59 58 63 65 64 63 64 64 60
69 70 70 71 71 71 73 73 73 72 70 69 67 60 56 58 64 63 61 60 62 62

GFSNIL_sfc_dewp_027.txt.gz
Dewpoint
69 68 68 68 68 69 71 70 71 71 70 67 65 66 64 64 63 62 62 62 61 60
69 69 68 69 69 70 70 70 70 71 70 68 64 66 64 63 63 63 62 62 62 61
69 69 69 69 69 69 70 69 69 70 69 67 65 65 65 64 63 64 63 62 61 61
69 70 70 69 70 69 69 68 69 69 68 67 65 66 65 65 64 63 63 63 62 61
69 70 71 70 71 70 68 67 68 69 68 67 65 64 66 65 64 63 62 62 63 62
69 69 69 70 71 71 69 67 68 68 68 67 66 65 64 65 65 64 64 62 62 63
69 70 70 69 70 71 71 68 67 67 68 68 67 65 64 64 64 64 64 64 63 62
70 70 71 70 70 70 71 70 68 68 68 68 67 66 66 65 64 64 63 63 63 64
70 71 71 71 71 70 70 70 69 68 68 68 67 64 64 66 65 64 64 64 64 64
70 70 71 72 72 71 70 71 70 69 69 68 68 63 62 64 66 65 64 64 65 64
70 70 71 71 72 72 71 71 71 70 69 69 68 62 61 64 66 65 65 66 65 64
71 71 71 71 71 72 72 71 71 71 69 69 69 61 59 62 66 66 66 66 66 65
71 71 71 71 71 72 72 72 71 71 70 68 70 59 58 62 67 66 66 66 66 62
71 71 71 71 72 72 73 73 73 72 72 71 69 64 56 59 66 66 65 65 64 63

GFSNIL_sfc_dewp_030.txt.gz
Dewpoint
70 68 69 69 69 69 70 70 72 72 72 70 69 68 67 65 64 66 65 64 64 63
69 70 69 69 69 69 71 71 72 72 72 71 69 68 67 65 65 65 65 65 65 63
69 70 70 70 69 69 70 71 71 72 72 71 69 68 67 65 66 65 64 63 65 64
69 70 70 69 70 70 70 71 70 71 71 70 69 67 67 66 65 65 65 65 64 64
70 70 70 70 70 70 70 70 70 71 71 70 69 68 67 66 65 65 65 65 65 64
69 69 70 70 70 70 70 70 69 70 70 69 69 67 67 67 66 65 65 65 65 65
69 69 70 70 70 71 71 69 69 69 70 69 69 68 67 67 67 66 66 65 65 65
68 69 70 70 71 71 71 70 69 69 69 69 68 67 67 66 66 66 66 66 66 65
69 69 70 70 70 71 71 71 70 69 69 69 68 64 64 66 66 66 66 66 66 67
69 70 70 71 71 70 70 71 71 70 69 69 69 62 63 65 67 67 66 66 66 65
70 70 70 71 71 71 70 70 71 70 70 70 69 61 61 64 68 68 67 67 66 67
70 70 70 71 71 71 71 70 70 70 70 70 70 60 60 62 67 67 67 67 67 66
70 70 70 70 71 72 72 71 71 71 71 68 70 60 58 62 67 66 67 67 67 62
71 71 70 71 71 71 72 72 72 71 72 71 70 68 57 58 68 67 67 66 66 66

GFSNIL_sfc_dewp_033.txt.gz
Dewpoint
74 71 71 72 69 69 69 70 74 75 75 75 75 74 73 71 69 69 68 69 68 64
74 74 72 74 74 70 73 70 73 74 75 75 74 73 73 70 70 69 69 68 68 65
72 73 73 74 74 73 73 73 73 74 74 74 74 74 73 70 71 69 67 66 68 68
72 72 73 73 74 74 74 74 74 74 74 74 74 73 73 72 70 69 69 68 68 68
72 73 72 73 73 74 74 74 75 74 74 74 74 73 73 71 69 69 68 68 68 67
71 72 72 73 73 74 74 75 73 74 74 73 73 73 73 72 71 70 69 68 68 67
72 72 72 73 74 74 74 74 74 74 74 73 73 73 72 72 71 71 70 69 68 68
72 73 73 73 74 74 74 74 74 74 74 73 72 70 72 72 71 71 70 69 69 68
72 73 73 73 74 74 74 74 74 74 74 73 71 66 66 70 71 71 71 70 69 69
72 73 73 73 74 74 74 74 74 73 73 73 73 63 63 66 70 70 71 72 70 68
71 72 73 73 73 74 74 74 74 74 73 73 73 62 62 64 71 72 72 71 71 71
71 71 72 72 73 73 73 73 73 74 74 73 73 61 60 64 70 71 71 71 70 70
72 72 72 73 73 74 73 73 72 73 74 71 73 61 59 63 68 70 69 71 71 63
73 73 73 74 74 74 73 73 73 73 74 74 73 72 58 58 70 69 69 69 69 69

GFSNIL_sfc_dewp_036.txt.gz
Dewpoint
78 71 71 74 70 69 67 68 72 73 74 75 75 76 76 73 72 72 71 71 68 61
77 76 72 75 75 70 74 69 71 73 75 75 75 76 76 72 73 71 72 70 69 64
75 77 76 76 76 75 74 75 72 73 74 74 75 76 76 73 73 73 70 66 68 68
73 74 75 75 76 77 75 76 75 75 74 73 74 75 76 75 73 73 72 70 68 70
74 74 73 75 76 77 77 76 76 76 75 74 73 74 75 74 72 72 71 70 69 68
72 73 74 76 76 77 77 77 74 75 77 75 74 75 75 74 73 72 72 71 70 69
73 73 74 75 76 76 77 77 77 77 77 76 74 74 73 74 73 73 72 72 71 70
74 75 75 75 76 77 77 77 77 77 77 77 74 70 75 75 73 74 73 72 71 70
75 75 75 76 77 77 77 77 77 77 77 76 71 65 66 72 73 74 74 74 73 72
75 75 76 76 77 77 77 77 77 77 77 77 76 63 64 67 72 73 74 75 73 70
75 75 76 77 76 77 77 77 77 77 77 77 76 64 62 65 73 74 75 75 74 74
74 73 74 76 76 76 75 76 76 75 77 77 76 63 61 65 72 72 75 75 74 75
74 74 74 76 77 76 75 74 73 74 76 73 77 63 59 64 69 71 69 75 76 65
74 75 76 77 77 76 75 74 75 75 75 77 75 75 58 59 72 68 69 68 70 71

GFSNIL_sfc_dewp_042.txt.gz
Dewpoint
75 74 71 73 70 69 70 70 75 75 76 76 77 77 78 77 76 76 75 75 73 72
74 75 73 72 74 73 73 72 76 75 75 75 76 76 77 75 76 77 75 74 75 73
76 75 75 74 75 73 75 74 78 76 75 76 76 77 77 76 76 76 75 73 74 73
76 75 75 74 75 76 75 78 75 77 76 76 76 76 77 75 75 76 75 74 74 73
76 76 76 75 74 75 77 75 77 77 76 75 75 76 75 75 72 75 74 73 73 73
75 75 76 76 75 75 75 76 75 77 76 75 75 75 76 75 74 72 75 74 73 72
75 75 75 76 77 75 76 75 76 75 75 76 75 75 75 75 75 75 73 75 74 73
74 76 76 76 76 77 76 76 76 76 76 76 75 74 75 75 75 75 74 74 75 74
74 75 76 76 76 76 77 77 77 76 75 76 74 70 68 73 74 75 75 74 74 74
74 75 75 76 76 76 76 77 77 77 76 75 76 67 66 68 74 74 75 75 74 73
75 74 75 76 76 76 76 77 76 77 77 76 75 67 64 66 73 74 74 75 75 74
75 74 75 76 76 76 76 76 77 76 77 77 76 65 63 64 72 72 73 74 74 75
73 75 75 75 76 77 77 76 76 76 77 73 77 68 62 64 72 71 71 73 74 66
75 74 75 76 77 77 77 76 77 76 77 77 75 75 61 59 74 73 71 70 71 72

GFSNIL_sfc_dewp_045.txt.gz
Dewpoint
73 70 68 70 69 67 70 71 71 74 74 73 74 74 74 74 74 73 71 71 69 66
70 73 69 66 71 67 69 70 72 73 75 73 74 74 73 75 73 74 72 71 72 69
71 70 73 69 69 72 69 69 73 72 73 73 74 74 74 74 74 73 73 72 72 71
73 72 71 72 69 71 71 73 72 74 73 73 73 74 73 73 73 73 73 72 72 71
73 73 71 71 73 68 73 71 74 75 74 74 73 73 74 73 73 72 73 72 71 71
73 73 73 72 71 73 70 73 71 74 74 74 74 74 73 74 73 72 73 73 72 70
73 73 73 73 73 70 73 72 73 72 74 74 73 73 74 73 73 73 71 73 72 71
73 73 73 73 74 74 72 73 72 73 72 74 73 73 73 73 73 73 72 71 73 73
73 73 73 74 74 74 74 72 74 72 72 73 74 69 68 72 73 73 73 73 71 73
72 73 73 74 74 74 74 75 73 74 73 73 73 66 66 68 72 72 73 73 73 71
71 72 73 73 73 73 74 74 75 74 74 74 73 66 64 66 72 72 72 73 73 73
71 71 72 72 73 73 73 73 73 74 74 74 74 65 63 65 71 72 72 73 73 73
71 72 72 72 73 73 73 73 73 73 74 72 75 66 62 64 72 72 72 72 72 66
72 72 73 73 73 73 73 73 74 74 74 75 73 73 61 60 72 72 72 71 71 71

GFSNIL_sfc_dewp_048.txt.gz
Dewpoint
69 69 67 66 66 65 68 71 71 73 73 72 73 73 73 72 71 69 69 69 67 65
70 68 68 68 68 65 68 71 71 72 73 72 73 73 73 73 73 72 70 69 70 67
69 72 70 68 68 71 67 70 71 71 73 73 73 72 72 72 73 73 72 71 70 69
69 68 73 70 67 67 69 68 69 71 72 73 73 72 72 71 73 72 72 72 70 69
71 70 68 72 70 68 68 70 70 72 72 73 73 73 72 72 72 73 72 72 71 70
71 71 71 69 71 71 69 69 71 73 73 73 72 73 73 72 72 73 72 73 72 71
71 72 72 72 69 71 71 68 70 72 74 73 73 73 73 73 73 72 72 72 72 72
71 72 73 73 72 71 70 72 69 70 72 74 73 73 73 73 72 73 72 72 73 72
72 72 72 73 73 72 72 70 71 71 71 72 73 69 68 71 72 72 72 71 71 72
71 72 73 73 73 73 73 72 70 71 71 71 72 66 66 68 72 72 72 72 71 71
72 72 73 73 73 73 73 73 73 72 72 72 71 65 64 66 72 71 72 72 72 72
71 72 73 73 73 73 73 73 73 74 73 72 73 63 62 64 71 72 72 72 72 73
68 71 72 72 72 73 73 73 73 73 74 72 73 64 61 64 71 71 72 73 73 66
67 69 71 71 72 72 73 73 73 73 73 74 73 73 60 60 72 72 72 72 72 72